Independence, KS

6:13 PM CDT on April 25, 2018 (GMT -0500)
Independence Municipal

Weather History for KIDP - September, 2012

Change the Weather History Date:

Saturday, September 1, 2012

  Actual Average (KCFV) Record (KCFV)
Temperature  
Mean Temperature 83 °F -  
Max Temperature 95 °F 89 °F 108 °F (2000)
Min Temperature 71 °F 63 °F 59 °F (2007)
Cooling Degree Days 18    
Growing Degree Days 33 (Base 50)    
Moisture  
Dew Point 63 °F    
Average Humidity 57    
Maximum Humidity 78    
Minimum Humidity 30    
Precipitation  
Precipitation 0.00 in - - ()
Sea Level Pressure  
Sea Level Pressure 29.92 in    
Wind  
Wind Speed 12 mph (NW)    
Max Wind Speed 22 mph    
Max Gust Speed 32 mph    
Visibility 10 miles    
Events Rain    
Averages and records for this station are not official NWS values.
T = Trace of Precipitation, MM = Missing Value Source: NWS Daily Summary

Daily Weather History Graph

Daily Weather History Graph

Search for Another Location

Airport or City:

Astronomy

Sep. 01, 2012 Rise Set
Actual Time 6:54 AM CDT 7:51 PM CDT
Civil Twilight 6:27 AM CDT 8:17 PM CDT
Nautical Twilight 5:56 AM CDT 8:49 PM CDT
Astronomical Twilight 5:23 AM CDT 9:21 PM CDT
Moon 8:12 PM CDT (9/1) 7:59 AM CDT (9/1)
Length of Visible Light 13h 49m
Length of Day
12h 56m
Full, 99% of the Moon is Illuminated
Sep 1
Full
Sep 8
Last Quarter
Sep 15
New
Sep 22
First Quarter
Sep 29
Full

Hourly Weather History & Observations

Time (CDT) Temp. Heat Index Dew Point Humidity Pressure Visibility Wind Dir Wind Speed Gust Speed Precip Events Conditions
12:15 AM 77.0 °F - 60.8 °F 57% 29.87 in 10.0 mi NW 11.5 mph 17.3 mph N/A   Overcast
12:35 AM 77.0 °F - 62.6 °F 61% 29.87 in 10.0 mi NW 12.7 mph - N/A   Drizzle
12:55 AM 73.4 °F - 62.6 °F 69% 29.87 in 10.0 mi NW 15.0 mph 20.7 mph N/A   Light Drizzle
1:15 AM 77.0 °F - 62.6 °F 61% 29.88 in 10.0 mi NW 15.0 mph 19.6 mph N/A   Overcast
1:35 AM 77.0 °F - 62.6 °F 61% 29.88 in 10.0 mi NW 11.5 mph 19.6 mph N/A   Overcast
1:55 AM 75.2 °F - 62.6 °F 65% 29.88 in 10.0 mi NW 21.9 mph 26.5 mph N/A   Overcast
2:15 AM 73.4 °F - 62.6 °F 69% 29.89 in 10.0 mi NW 17.3 mph 20.7 mph N/A Rain Light Rain
2:35 AM 73.4 °F - 62.6 °F 69% 29.89 in 10.0 mi WNW 18.4 mph 25.3 mph N/A   Overcast
2:55 AM 73.4 °F - 64.4 °F 73% 29.89 in 10.0 mi NW 15.0 mph 24.2 mph N/A   Overcast
3:15 AM 75.2 °F - 62.6 °F 65% 29.88 in 10.0 mi NW 16.1 mph 21.9 mph N/A   Mostly Cloudy
3:35 AM 75.2 °F - 62.6 °F 65% 29.88 in 10.0 mi NW 16.1 mph 21.9 mph N/A   Scattered Clouds
3:55 AM 75.2 °F - 62.6 °F 65% 29.89 in 10.0 mi NW 12.7 mph 20.7 mph N/A   Mostly Cloudy
4:15 AM 75.2 °F - 62.6 °F 65% 29.89 in 10.0 mi NW 15.0 mph 20.7 mph N/A   Overcast
4:35 AM 75.2 °F - 62.6 °F 65% 29.89 in 10.0 mi NW 13.8 mph 20.7 mph N/A   Mostly Cloudy
4:55 AM 73.4 °F - 64.4 °F 73% 29.90 in 10.0 mi NW 16.1 mph 32.2 mph N/A   Overcast
5:15 AM 71.6 °F - 64.4 °F 78% 29.90 in 10.0 mi WNW 10.4 mph - N/A   Overcast
5:35 AM 71.6 °F - 64.4 °F 78% 29.90 in 10.0 mi WNW 6.9 mph - N/A   Overcast
5:55 AM 71.6 °F - 64.4 °F 78% 29.91 in 10.0 mi WNW 5.8 mph - N/A   Overcast
6:15 AM 71.6 °F - 64.4 °F 78% 29.92 in 10.0 mi West 8.1 mph - N/A   Overcast
6:35 AM 71.6 °F - 64.4 °F 78% 29.92 in 10.0 mi WNW 9.2 mph - N/A   Overcast
6:55 AM 71.6 °F - 64.4 °F 78% 29.93 in 10.0 mi WNW 8.1 mph - N/A   Overcast
7:15 AM 71.6 °F - 64.4 °F 78% 29.94 in 10.0 mi WNW 9.2 mph - N/A   Mostly Cloudy
7:35 AM 71.6 °F - 64.4 °F 78% 29.95 in 10.0 mi WNW 9.2 mph - N/A   Mostly Cloudy
7:55 AM 71.6 °F - 64.4 °F 78% 29.95 in 10.0 mi West 10.4 mph - N/A   Overcast
8:15 AM 73.4 °F - 64.4 °F 73% 29.95 in 10.0 mi West 8.1 mph - N/A   Mostly Cloudy
8:35 AM 73.4 °F - 64.4 °F 73% 29.96 in 10.0 mi WNW 9.2 mph - N/A   Mostly Cloudy
8:55 AM 73.4 °F - 64.4 °F 73% 29.96 in 10.0 mi West 8.1 mph - N/A   Overcast
9:15 AM 75.2 °F - 64.4 °F 69% 29.96 in 10.0 mi West 9.2 mph - N/A   Overcast
9:35 AM 75.2 °F - 64.4 °F 69% 29.96 in 10.0 mi WNW 11.5 mph 16.1 mph N/A   Mostly Cloudy
10:15 AM 78.8 °F - 64.4 °F 61% 29.97 in 10.0 mi WNW 12.7 mph - N/A   Scattered Clouds
10:35 AM 80.6 °F 82.3 °F 64.4 °F 58% 29.97 in 10.0 mi WNW 10.4 mph - N/A   Scattered Clouds
10:55 AM 80.6 °F 82.3 °F 64.4 °F 58% 29.97 in 10.0 mi WNW 13.8 mph - N/A   Scattered Clouds
11:15 AM 82.4 °F 83.9 °F 64.4 °F 54% 29.97 in 10.0 mi NNW 12.7 mph 18.4 mph N/A   Scattered Clouds
11:35 AM 82.4 °F 83.9 °F 64.4 °F 54% 29.97 in 10.0 mi WNW 10.4 mph - N/A   Scattered Clouds
11:55 AM 86.0 °F 87.3 °F 64.4 °F 48% 29.95 in 10.0 mi WNW 13.8 mph 21.9 mph N/A   Scattered Clouds
12:15 PM 86.0 °F 86.6 °F 62.6 °F 45% 29.95 in 10.0 mi NW 16.1 mph - N/A   Clear
12:35 PM 86.0 °F 87.3 °F 64.4 °F 48% 29.95 in 10.0 mi NW 12.7 mph - N/A   Mostly Cloudy
1:15 PM 89.6 °F 90.1 °F 62.6 °F 40% 29.95 in 10.0 mi North 11.5 mph 20.7 mph N/A   Scattered Clouds
1:35 PM 89.6 °F 90.1 °F 62.6 °F 40% 29.94 in 10.0 mi North 17.3 mph 20.7 mph N/A   Mostly Cloudy
1:55 PM 89.6 °F 90.1 °F 62.6 °F 40% 29.93 in 10.0 mi NW 12.7 mph 20.7 mph N/A   Mostly Cloudy
2:15 PM 89.6 °F 89.5 °F 60.8 °F 38% 29.93 in 10.0 mi NNW 17.3 mph 23.0 mph N/A   Scattered Clouds
2:35 PM 91.4 °F 91.4 °F 60.8 °F 36% 29.92 in 10.0 mi North 13.8 mph 23.0 mph N/A   Clear
2:55 PM 91.4 °F 91.4 °F 60.8 °F 36% 29.92 in 10.0 mi NNW 12.7 mph 23.0 mph N/A   Scattered Clouds
3:15 PM 93.2 °F 92.6 °F 59.0 °F 32% 29.91 in 10.0 mi NW 13.8 mph - N/A   Scattered Clouds
3:35 PM 95.0 °F 94.4 °F 59.0 °F 30% 29.91 in 10.0 mi NW 12.7 mph 24.2 mph N/A   Clear
3:55 PM 93.2 °F 92.6 °F 59.0 °F 32% 29.90 in 10.0 mi WNW 12.7 mph 20.7 mph N/A   Scattered Clouds
4:15 PM 93.2 °F 92.6 °F 59.0 °F 32% 29.90 in 10.0 mi NW 13.8 mph - N/A   Scattered Clouds
4:35 PM 93.2 °F 92.6 °F 59.0 °F 32% 29.89 in 10.0 mi NW 15.0 mph - N/A   Clear
4:55 PM 93.2 °F 92.6 °F 59.0 °F 32% 29.89 in 10.0 mi NW 17.3 mph 23.0 mph N/A   Clear
5:15 PM 93.2 °F 92.6 °F 59.0 °F 32% 29.89 in 10.0 mi North 17.3 mph - N/A   Clear
5:35 PM 93.2 °F 92.6 °F 59.0 °F 32% 29.89 in 10.0 mi North 20.7 mph - N/A   Clear
5:55 PM 91.4 °F 90.7 °F 59.0 °F 34% 29.89 in 10.0 mi NW 12.7 mph 23.0 mph N/A   Clear
6:15 PM 91.4 °F 90.7 °F 59.0 °F 34% 29.90 in 10.0 mi North 13.8 mph - N/A   Clear
6:35 PM 91.4 °F 90.7 °F 59.0 °F 34% 29.90 in 10.0 mi North 10.4 mph - N/A   Scattered Clouds
6:55 PM 89.6 °F 88.9 °F 59.0 °F 36% 29.90 in 10.0 mi North 10.4 mph - N/A   Clear
7:15 PM 87.8 °F 87.6 °F 60.8 °F 40% 29.90 in 10.0 mi North 9.2 mph - N/A   Clear
7:35 PM 86.0 °F 86.1 °F 60.8 °F 43% 29.90 in 10.0 mi North 6.9 mph - N/A   Clear
7:55 PM 84.2 °F 84.4 °F 60.8 °F 45% 29.91 in 10.0 mi North 8.1 mph - N/A   Clear
8:15 PM 82.4 °F 83.4 °F 62.6 °F 51% 29.92 in 10.0 mi North 6.9 mph - N/A   Clear
8:35 PM 80.6 °F 81.8 °F 62.6 °F 54% 29.92 in 10.0 mi NNE 4.6 mph - N/A   Clear
8:55 PM 80.6 °F 81.8 °F 62.6 °F 54% 29.93 in 10.0 mi NNE 3.5 mph - N/A   Clear
9:15 PM 80.6 °F 81.8 °F 62.6 °F 54% 29.93 in 10.0 mi NNE 3.5 mph - N/A   Clear
9:35 PM 78.8 °F - 62.6 °F 57% 29.94 in 10.0 mi NNE 4.6 mph - N/A   Clear
9:55 PM 78.8 °F - 62.6 °F 57% 29.95 in 10.0 mi NNE 3.5 mph - N/A   Clear
10:15 PM 77.0 °F - 64.4 °F 65% 29.95 in 10.0 mi NNE 3.5 mph - N/A   Clear
10:35 PM 75.2 °F - 64.4 °F 69% 29.95 in 10.0 mi Calm Calm - N/A   Clear
10:55 PM 75.2 °F - 64.4 °F 69% 29.96 in 10.0 mi Calm Calm - N/A   Clear
11:15 PM 75.2 °F - 64.4 °F 69% 29.96 in 10.0 mi NE 4.6 mph - N/A   Clear
11:35 PM 75.2 °F - 64.4 °F 69% 29.96 in 10.0 mi NE 8.1 mph - N/A   Clear
11:55 PM 73.4 °F - 64.4 °F 73% 29.96 in 10.0 mi NE 5.8 mph - N/A   Clear